Tracking 19817 objects as of 18-Aug-2019
HD Live streaming from Space Station
objects crossing your sky now

F-1


F-1 is no longer on orbit
F-1 is classified as:


NORAD ID: 38855
Int'l Code: 1998-067CR
Perigee: N/A
Apogee: N/A
Inclination: N/A
Period: N/A
Semi major axis: N/A
RCS: N/A
Launch date: November 20, 1998
Source: Vietnam (VTNM)
Launch site: TYURATAM MISSILE AND SPACE COMPLEX (TTMTR)
Decay date: 2013-05-09

Uplink (MHz):
Downlink (MHz): 145.980
Beacon (MHz): 437.485
Mode: 1200bps FM AFSK CW
Call sign: XV1VN
Status: Reentered

aabbcc
Your satellite tracking list
Your tracking list is empty




NASA's NSSDC Master Catalog

Two Line Element Set (TLE):
1 38855U 98067CR  13129.77714356  .27424026  12535-4  30797-3 0  9991
2 38855 051.5085 272.4145 0008326 194.2908 166.5495 16.49710473 33949
Source of the keplerian elements: AFSPC